FW0527 Weather Reports


time (UTC)temp
C
wind
direction
speed
KPH
gust
KPH
rain 1hr
cm
rain 24hr
cm
rain mn
cm
humidity
%
barometer
mb
20260502210006 28 338 0.0 3.2 0.00 0.00 0.00 27 1010.4
20260502204504 28 303 0.0 12.9 0.00 0.00 0.00 27 1010.7
20260502203001 28 217 0.0 9.7 0.00 0.00 0.00 29 1011.0
20260502201604 28 303 0.0 3.2 0.00 0.00 0.00 28 1011.1
20260502200105 28 210 0.0 0.0 0.00 0.00 0.00 21 1011.5
20260502194617 28 212 0.0 0.0 0.00 0.00 0.00 17 1011.3
20260502193059 28 12 0.0 0.0 0.00 0.00 0.00 17 1011.5
20260502191554 27 140 0.0 14.5 0.00 0.00 0.00 18 1011.5
20260502190104 27 150 0.0 17.7 0.00 0.00 0.00 18 1011.8
20260502184558 27 140 0.0 16.1 0.00 0.00 0.00 18 1011.8
20260502183051 28 84 1.6 14.5 0.00 0.00 0.00 17 1011.8
20260502181547 28 128 0.0 16.1 0.00 0.00 0.00 18 1012.1
20260502180106 27 144 0.0 4.8 0.00 0.00 0.00 19 1012.1
20260502163030 24 341 0.0 11.3 0.00 0.00 0.00 23 1012.3
20260502161525 23 111 0.0 6.4 0.00 0.00 0.00 24 1012.3
20260502151507 15 144 0.0 0.0 0.00 0.00 0.00 49 1012.7
20260502123045 9 121 0.0 0.0 0.00 0.00 0.00 63 1011.8
20260502121555 9 121 0.0 0.0 0.00 0.00 0.00 65 1011.8
20260502114542 9 121 0.0 0.0 0.00 0.00 0.00 64 1011.9
20260502113041 9 121 0.0 0.0 0.00 0.00 0.00 63 1011.8
20260502111542 9 121 0.0 0.0 0.00 0.00 0.00 63 1011.8
20260502110042 9 121 0.0 0.0 0.00 0.00 0.00 63 1011.7
20260502104544 9 121 0.0 0.0 0.00 0.00 0.00 65 1011.6
20260502103049 9 121 0.0 0.0 0.00 0.00 0.00 63 1011.6
20260502101555 9 121 0.0 0.0 0.00 0.00 0.00 62 1011.6
20260502071516 10 308 0.0 0.0 0.00 0.00 0.00 67 1012.8
20260502070021 10 308 0.0 0.0 0.00 0.00 0.00 67 1012.8
20260502064526 10 308 0.0 0.0 0.00 0.00 0.00 66 1012.6
20260502063013 10 308 0.0 0.0 0.00 0.00 0.00 68 1012.7
20260502061511 10 307 0.0 0.0 0.00 0.00 0.00 66 1012.8
20260502060011 11 307 0.0 0.0 0.00 0.00 0.00 67 1012.8
20260502054513 11 307 0.0 0.0 0.00 0.00 0.00 68 1012.8
20260502053011 11 307 0.0 0.0 0.00 0.00 0.00 68 1012.7
20260502051510 11 307 0.0 0.0 0.00 0.00 0.00 67 1012.6
20260502050010 11 307 0.0 0.0 0.00 0.00 0.00 69 1012.6
20260502044510 12 307 0.0 0.0 0.00 0.00 0.00 71 1012.6
20260502043014 12 307 0.0 0.0 0.00 0.00 0.00 67 1012.4
20260502041509 13 307 0.0 0.0 0.00 0.00 0.00 71 1012.3
20260502040012 13 307 0.0 0.0 0.00 0.00 0.00 71 1012.1
20260502034507 14 307 0.0 0.0 0.00 0.00 0.00 71 1012.0
20260502033007 15 307 0.0 0.0 0.00 0.00 0.00 70 1011.9
20260502031506 16 307 0.0 0.0 0.00 0.00 0.00 67 1011.7
20260502030006 16 307 0.0 0.0 0.00 0.00 0.00 66 1011.6
20260502024506 17 307 0.0 0.0 0.00 0.00 0.00 64 1011.5
20260502023008 17 307 0.0 0.0 0.00 0.00 0.00 63 1011.4
20260502021507 18 309 0.0 0.0 0.00 0.00 0.00 61 1011.3
20260502020007 19 305 0.0 0.0 0.00 0.00 0.00 59 1011.2
20260502014503 20 298 0.0 0.0 0.00 0.00 0.00 57 1011.2
20260502013002 20 309 0.0 0.0 0.00 0.00 0.00 55 1011.1
20260502011503 21 315 0.0 0.0 0.00 0.00 0.00 53 1011.2
20260502010100 21 302 0.0 14.5 0.00 0.00 0.00 50 1011.3
20260502010001 21 321 0.0 14.5 0.00 0.00 0.00 50 1011.3
20260502004607 22 290 0.0 6.4 0.00 0.00 0.00 47 1011.2
20260502003059 22 313 0.0 4.8 0.00 0.00 0.00 45 1011.1
20260502001557 22 338 0.0 17.7 0.00 0.00 0.00 43 1011.3
20260502000113 22 329 0.0 9.7 0.00 0.00 0.00 36 1011.4
20260501234555 23 311 0.0 3.2 0.00 0.00 0.00 39 1011.3
20260501233054 23 254 0.0 11.3 0.00 0.00 0.00 38 1011.2
20260501231601 23 306 0.0 16.1 0.00 0.00 0.00 38 1011.3
20260501230051 23 292 0.0 11.3 0.00 0.00 0.00 36 1011.6
20260501224557 23 318 0.0 16.1 0.00 0.00 0.00 37 1011.9
20260501223047 23 315 0.0 17.7 0.00 0.00 0.00 36 1012.1
20260501221602 24 304 0.0 12.9 0.00 0.00 0.00 35 1012.4
20260501220050 25 232 0.0 3.2 0.00 0.00 0.00 32 1012.5
20260501214542 26 292 0.0 1.6 0.00 0.00 0.00 27 1012.5
20260501213042 26 320 0.0 9.7 0.00 0.00 0.00 23 1012.6
20260501211539 26 254 1.6 22.5 0.00 0.00 0.00 28 1012.6